EW9353 Weather Reports


time (UTC)temp
C
wind
direction
speed
KPH
gust
KPH
rain 1hr
cm
rain 24hr
cm
rain mn
cm
humidity
%
barometer
mb
20200220083135 0 62 1.6 3.2 0.03 0.03 0.03 96 1025.9
20200220081521 0 62 0.0 1.6 0.00 0.00 0.00 95 1025.7
20200220080032 -1 62 0.0 0.0 0.00 0.00 0.00 95 1025.5
20200220074540 -1 62 0.0 1.6 0.00 0.00 0.00 94 1025.3
20200220073029 -1 62 0.0 1.6 0.00 0.00 0.00 94 1025.2
20200220071506 -1 62 0.0 1.6 0.00 0.00 0.00 95 1025.1
20200220070013 -1 62 0.0 0.0 0.00 0.00 0.00 95 1025.2
20200220064507 -1 62 0.0 1.6 0.00 0.00 0.00 95 1025.2
20200220063006 -1 62 0.0 3.2 0.00 0.00 0.00 94 1025.2
20200220061513 -1 62 0.0 3.2 0.00 0.00 0.00 95 1025.1
20200220060011 -1 62 0.0 0.0 0.00 0.00 0.00 95 1025.2
20200220054501 -1 62 0.0 0.0 0.00 0.00 0.00 94 1025.4
20200220053152 -1 62 0.0 3.2 0.00 0.00 0.00 94 1025.5
20200220051607 -1 62 0.0 3.2 0.00 0.00 0.00 94 1025.4
20200220050141 -1 62 0.0 3.2 0.00 0.00 0.00 94 1025.3
20200220044703 -1 62 0.0 0.0 0.00 0.00 0.00 94 1025.4
20200220043223 -1 62 0.0 0.0 0.00 0.00 0.00 94 1025.4
20200220041735 0 62 0.0 0.0 0.00 0.00 0.00 94 1025.4
20200220040145 0 62 0.0 0.0 0.00 0.00 0.00 94 1025.4
20200220034603 0 62 0.0 3.2 0.00 0.00 0.00 94 1025.4
20200220033106 0 62 0.0 1.6 0.00 0.00 0.00 93 1025.4
20200220031616 0 62 0.0 0.0 0.00 0.00 0.00 94 1025.6
20200220030105 0 62 0.0 0.0 0.00 0.00 0.00 94 1025.7
20200220024701 0 62 0.0 0.0 0.00 0.00 0.00 94 1025.9
20200220023111 0 62 0.0 3.2 0.00 0.00 0.00 94 1026.2
20200220021649 0 62 0.0 0.0 0.00 0.00 0.00 93 1026.2
20200220020058 0 62 0.0 0.0 0.00 0.00 0.00 93 1026.4
20200220014541 0 62 0.0 3.2 0.00 0.00 0.00 92 1026.6
20200220013045 0 62 0.0 1.6 0.00 0.00 0.00 93 1026.7
20200220011533 0 62 0.0 0.0 0.00 0.00 0.00 93 1026.9
20200220010028 0 62 0.0 0.0 0.00 0.00 0.00 93 1027.1
20200220004650 0 62 0.0 1.6 0.00 0.00 0.00 93 1027.1
20200220003106 1 62 0.0 1.6 0.00 0.00 0.00 93 1027.3
20200220001530 0 62 0.0 0.0 0.00 0.00 0.00 92 1027.6
20200220000033 1 62 0.0 0.0 0.00 0.00 0.00 93 1027.6
20200219234542 1 62 0.0 0.0 0.00 0.00 0.00 93 1027.8
20200219233110 1 62 0.0 0.0 0.00 0.00 0.00 92 1027.8
20200219231552 1 62 0.0 0.0 0.00 0.00 0.00 92 1027.9
20200219230028 1 62 0.0 0.0 0.00 0.00 0.00 92 1028.0
20200219224534 1 62 0.0 1.6 0.00 0.00 0.00 92 1028.2
20200219223030 1 62 0.0 0.0 0.00 0.00 0.00 91 1028.2
20200219221532 2 62 0.0 0.0 0.00 0.00 0.00 91 1028.3
20200219220115 2 62 0.0 0.0 0.00 0.00 0.00 90 1028.3
20200219214525 2 62 0.0 0.0 0.00 0.00 0.00 91 1028.4
20200219213110 2 62 0.0 0.0 0.00 0.00 0.00 91 1028.4
20200219211542 3 62 0.0 1.6 0.00 0.00 0.00 89 1028.4
20200219210034 3 62 0.0 3.2 0.00 0.00 0.00 90 1028.4
20200219204545 3 62 0.0 3.2 0.00 0.00 0.00 88 1028.4
20200219203019 4 62 0.0 1.6 0.00 0.00 0.00 88 1028.4
20200219201520 4 62 0.0 3.2 0.00 0.00 0.00 88 1028.4
20200219200018 5 62 0.0 3.2 0.00 0.00 0.00 86 1028.4
20200219194526 5 62 0.0 1.6 0.00 0.00 0.00 86 1028.3
20200219193010 6 62 0.0 1.6 0.00 0.00 0.00 85 1028.4
20200219191508 6 62 0.0 3.2 0.00 0.00 0.00 82 1028.3
20200219190008 7 62 1.6 3.2 0.00 0.00 0.00 80 1028.3
20200219184508 8 62 0.0 0.0 0.00 0.00 0.00 77 1028.2
20200219183008 10 62 1.6 4.8 0.00 0.00 0.00 72 1028.2
20200219181512 11 62 1.6 3.2 0.00 0.00 0.00 68 1028.2
20200219180011 13 62 0.0 3.2 0.00 0.00 0.00 64 1028.2
20200219174517 13 62 0.0 8.0 0.00 0.00 0.00 62 1028.2
20200219173004 14 61 1.6 8.0 0.00 0.00 0.00 60 1028.2
20200219171506 15 61 3.2 8.0 0.00 0.00 0.00 59 1028.2
20200219170006 15 40 6.4 11.3 0.00 0.00 0.00 58 1028.3
20200219164509 15 63 4.8 11.3 0.00 0.00 0.00 58 1028.4
20200219163046 15 68 3.2 8.0 0.00 0.00 0.00 58 1028.6
20200219161611 15 68 3.2 8.0 0.00 0.00 0.00 58 1028.8
20200219160037 15 61 3.2 8.0 0.00 0.00 0.00 55 1028.8
20200219154550 15 10 4.8 12.9 0.00 0.00 0.00 54 1029.0
20200219153206 15 63 3.2 9.7 0.00 0.00 0.00 54 1029.2
20200219151533 15 23 4.8 11.3 0.00 0.00 0.00 53 1029.4
20200219150057 15 44 0.0 8.0 0.00 0.00 0.00 51 1029.6
20200219144531 15 75 4.8 12.9 0.00 0.00 0.00 50 1029.8
20200219143021 14 5 1.6 9.7 0.00 0.00 0.00 48 1030.0
20200219141519 14 340 1.6 11.3 0.00 0.00 0.00 47 1030.3
20200219140020 14 34 6.4 11.3 0.00 0.00 0.00 49 1030.6
20200219134512 14 41 3.2 11.3 0.00 0.00 0.00 52 1031.0
20200219133035 14 23 6.4 11.3 0.00 0.00 0.00 51 1031.2
20200219131503 13 74 1.6 11.3 0.00 0.00 0.00 48 1031.5
20200219130227 13 97 3.2 11.3 0.00 0.00 0.00 51 1031.8
20200219124624 13 39 3.2 8.0 0.00 0.00 0.00 51 1032.2
20200219123141 12 19 0.0 9.7 0.00 0.00 0.00 58 1032.6
20200219121555 12 98 3.2 8.0 0.00 0.00 0.00 62 1032.8
20200219120054 11 81 4.8 8.0 0.00 0.00 0.00 61 1033.1
20200219114602 11 60 4.8 12.9 0.00 0.00 0.00 64 1033.2
20200219113112 10 61 6.4 12.9 0.00 0.00 0.00 69 1033.4
20200219111539 10 46 4.8 12.9 0.00 0.00 0.00 72 1033.5
20200219110051 9 37 3.2 11.3 0.00 0.00 0.00 72 1033.6
20200219104634 8 45 3.2 9.7 0.00 0.00 0.00 72 1033.7
20200219103053 8 38 8.0 11.3 0.00 0.00 0.00 74 1033.9
20200219101524 7 89 6.4 11.3 0.00 0.00 0.00 75 1033.8
20200219094529 6 34 6.4 12.9 0.00 0.00 0.00 79 1034.1
20200219093010 6 55 6.4 12.9 0.00 0.00 0.00 79 1034.1
20200219090002 5 43 9.7 16.1 0.00 0.03 0.00 82 1034.4
20200219084625 4 69 6.4 12.9 0.00 0.03 0.00 84 1034.4